Time,TemperatureF,DewpointF,PressureIn,WindDirection,WindDirectionDegrees,WindSpeedMPH,WindSpeedGustMPH,Humidity,HourlyPrecipIn,Conditions,Clouds,dailyrainin,SoftwareType,DateUTC
2013-06-05 00:01:00,66.2,63.8,29.91,NNE,12,2.0,4.0,92,0.00,,BKN250,0.00,VWS V14.01,2013-06-05 05:01:00,
2013-06-05 00:06:00,66.1,64.0,29.92,North,4,3.0,3.0,93,0.00,,BKN250,0.00,VWS V14.01,2013-06-05 05:06:00,
2013-06-05 00:11:00,66.0,63.9,29.92,North,4,4.0,5.0,93,0.00,,BKN250,0.02,VWS V14.01,2013-06-05 05:11:00,
2013-06-05 00:16:00,65.9,63.8,29.91,NNE,19,6.0,6.0,93,0.00,,BKN250,0.02,VWS V14.01,2013-06-05 05:16:00,
2013-06-05 00:21:00,65.8,63.7,29.91,North,8,0.0,4.0,93,0.00,,BKN250,0.02,VWS V14.01,2013-06-05 05:21:00,
2013-06-05 00:26:00,65.8,63.7,29.91,NNE,13,8.0,8.0,93,0.00,,BKN250,0.02,VWS V14.01,2013-06-05 05:26:00,
2013-06-05 00:31:00,65.6,63.5,29.91,North,8,5.0,7.0,93,0.00,,BKN250,0.02,VWS V14.01,2013-06-05 05:31:00,
2013-06-05 00:36:00,65.4,63.6,29.91,NNE,16,2.0,5.0,94,0.00,,BKN250,0.02,VWS V14.01,2013-06-05 05:36:00,
2013-06-05 00:41:00,65.3,63.5,29.91,NNE,21,2.0,7.0,94,0.00,,,0.02,VWS V14.01,2013-06-05 05:41:00,
2013-06-05 00:46:00,65.2,63.4,29.91,North,10,3.0,3.0,94,0.00,,,0.02,VWS V14.01,2013-06-05 05:46:00,
2013-06-05 00:51:00,65.2,63.4,29.91,North,359,2.0,2.0,94,0.00,,,0.02,VWS V14.01,2013-06-05 05:51:00,
2013-06-05 00:56:00,65.2,63.4,29.91,North,359,0.0,1.0,94,0.00,,,0.02,VWS V14.01,2013-06-05 05:56:00,
2013-06-05 01:01:00,65.2,63.4,29.91,North,359,1.0,1.0,94,0.00,,,0.02,VWS V14.01,2013-06-05 06:01:00,
2013-06-05 01:06:00,65.2,63.4,29.90,North,359,2.0,2.0,94,0.00,,,0.02,VWS V14.01,2013-06-05 06:06:00,
2013-06-05 01:11:00,65.2,63.4,29.91,North,8,3.0,4.0,94,0.00,,,0.02,VWS V14.01,2013-06-05 06:11:00,
2013-06-05 01:16:00,65.2,63.4,29.90,North,4,1.0,2.0,94,0.00,,,0.02,VWS V14.01,2013-06-05 06:16:00,
2013-06-05 01:21:00,65.1,63.3,29.90,North,4,0.0,0.0,94,0.00,,,0.02,VWS V14.01,2013-06-05 06:21:00,
2013-06-05 01:26:00,65.2,63.7,29.90,North,4,0.0,0.0,95,0.00,,,0.02,VWS V14.01,2013-06-05 06:26:00,
2013-06-05 01:31:00,65.1,63.6,29.90,North,4,0.0,0.0,95,0.00,,,0.02,VWS V14.01,2013-06-05 06:31:00,
2013-06-05 01:36:00,65.2,63.7,29.90,North,4,0.0,1.0,95,0.00,,,0.02,VWS V14.01,2013-06-05 06:36:00,
2013-06-05 01:41:00,65.2,63.7,29.90,North,4,0.0,1.0,95,0.00,,,0.03,VWS V14.01,2013-06-05 06:41:00,
2013-06-05 01:46:00,65.3,63.8,29.91,North,4,0.0,1.0,95,0.00,,,0.03,VWS V14.01,2013-06-05 06:46:00,
2013-06-05 01:52:00,65.4,63.9,29.92,North,4,0.0,1.0,95,0.00,,,0.03,VWS V14.01,2013-06-05 06:52:00,
2013-06-05 01:57:00,65.4,63.9,29.92,North,4,0.0,0.0,95,0.00,,,0.03,VWS V14.01,2013-06-05 06:57:00,
2013-06-05 02:02:00,65.4,63.9,29.92,North,4,1.0,1.0,95,0.00,,,0.03,VWS V14.01,2013-06-05 07:02:00,
2013-06-05 02:07:00,65.4,63.9,29.93,WNW,299,0.0,2.0,95,0.00,,,0.05,VWS V14.01,2013-06-05 07:07:00,
2013-06-05 02:12:00,65.4,63.9,29.92,WNW,299,0.0,0.0,95,0.00,,,0.10,VWS V14.01,2013-06-05 07:12:00,
2013-06-05 02:17:00,65.4,63.9,29.92,WNW,299,0.0,0.0,95,0.00,,,0.12,VWS V14.01,2013-06-05 07:17:00,
2013-06-05 02:22:00,65.4,63.9,29.92,WNW,299,0.0,0.0,95,0.00,,,0.12,VWS V14.01,2013-06-05 07:22:00,
2013-06-05 02:27:00,65.5,64.0,29.92,WNW,299,0.0,0.0,95,0.00,,,0.12,VWS V14.01,2013-06-05 07:27:00,
2013-06-05 02:32:00,65.4,63.9,29.92,SSW,195,1.0,3.0,95,0.00,,,0.12,VWS V14.01,2013-06-05 07:32:00,
2013-06-05 02:37:00,65.4,63.9,29.92,South,176,3.0,4.0,95,0.00,,,0.12,VWS V14.01,2013-06-05 07:37:00,
2013-06-05 02:42:00,65.4,63.9,29.92,SSW,209,5.0,5.0,95,0.00,,,0.12,VWS V14.01,2013-06-05 07:42:00,
2013-06-05 02:47:00,65.4,63.9,29.92,SSW,208,1.0,2.0,95,0.00,,,0.12,VWS V14.01,2013-06-05 07:47:00,
2013-06-05 02:52:00,65.4,63.9,29.92,SW,231,0.0,0.0,95,0.00,,,0.12,VWS V14.01,2013-06-05 07:52:00,
2013-06-05 02:57:00,65.3,63.8,29.92,SW,231,0.0,0.0,95,0.00,,,0.12,VWS V14.01,2013-06-05 07:57:00,
2013-06-05 03:02:00,65.3,63.8,29.92,SW,231,0.0,0.0,95,0.00,,,0.12,VWS V14.01,2013-06-05 08:02:00,
2013-06-05 03:07:00,65.3,63.8,29.92,SW,231,0.0,0.0,95,0.00,,,0.12,VWS V14.01,2013-06-05 08:07:00,
2013-06-05 03:12:00,65.3,63.8,29.92,SW,231,0.0,0.0,95,0.00,,,0.12,VWS V14.01,2013-06-05 08:12:00,
2013-06-05 03:17:00,65.3,64.1,29.92,SW,231,0.0,0.0,96,0.00,,,0.12,VWS V14.01,2013-06-05 08:17:00,
2013-06-05 03:22:00,65.3,64.1,29.92,SW,231,0.0,1.0,96,0.00,,,0.12,VWS V14.01,2013-06-05 08:22:00,
2013-06-05 03:27:00,65.3,64.1,29.92,SW,231,0.0,0.0,96,0.00,,,0.12,VWS V14.01,2013-06-05 08:27:00,
2013-06-05 03:32:00,65.3,64.1,29.92,SW,231,0.0,0.0,96,0.00,,,0.12,VWS V14.01,2013-06-05 08:32:00,
2013-06-05 03:37:00,65.3,64.1,29.92,SW,231,0.0,0.0,96,0.00,,,0.12,VWS V14.01,2013-06-05 08:37:00,
2013-06-05 03:42:00,65.3,64.1,29.92,SW,231,0.0,1.0,96,0.00,,,0.12,VWS V14.01,2013-06-05 08:42:00,
2013-06-05 03:48:00,65.3,64.1,29.92,SW,231,0.0,1.0,96,0.00,,,0.12,VWS V14.01,2013-06-05 08:48:00,
2013-06-05 03:53:00,65.2,64.0,29.92,West,262,2.0,2.0,96,0.00,,,0.12,VWS V14.01,2013-06-05 08:53:00,
2013-06-05 03:58:00,65.2,64.0,29.92,West,269,0.0,0.0,96,0.00,,,0.12,VWS V14.01,2013-06-05 08:58:00,
2013-06-05 04:03:00,65.2,64.0,29.92,West,269,0.0,0.0,96,0.00,,,0.12,VWS V14.01,2013-06-05 09:03:00,
2013-06-05 04:08:00,65.1,63.9,29.91,NW,305,0.0,0.0,96,0.00,,,0.12,VWS V14.01,2013-06-05 09:08:00,
2013-06-05 04:13:00,65.0,63.8,29.92,NNW,348,1.0,2.0,96,0.00,,,0.12,VWS V14.01,2013-06-05 09:13:00,
2013-06-05 04:18:00,64.9,63.7,29.92,NNW,339,1.0,1.0,96,0.00,,,0.12,VWS V14.01,2013-06-05 09:18:00,
2013-06-05 04:23:00,64.8,63.6,29.92,North,354,0.0,3.0,96,0.00,,,0.12,VWS V14.01,2013-06-05 09:23:00,
2013-06-05 04:28:00,64.7,63.5,29.92,NNE,19,3.0,3.0,96,0.00,,,0.12,VWS V14.01,2013-06-05 09:28:00,
2013-06-05 04:33:00,64.5,63.3,29.93,North,4,4.0,4.0,96,0.00,,,0.12,VWS V14.01,2013-06-05 09:33:00,
2013-06-05 04:38:00,64.4,63.2,29.92,NNE,12,3.0,6.0,96,0.00,,,0.12,VWS V14.01,2013-06-05 09:38:00,
2013-06-05 04:43:00,64.3,63.1,29.92,NNE,14,3.0,5.0,96,0.00,,,0.12,VWS V14.01,2013-06-05 09:43:00,
2013-06-05 04:48:00,64.2,63.0,29.92,North,4,3.0,5.0,96,0.00,,,0.12,VWS V14.01,2013-06-05 09:48:00,
2013-06-05 04:53:00,64.2,63.0,29.92,NNE,12,2.0,5.0,96,0.00,,,0.12,VWS V14.01,2013-06-05 09:53:00,
2013-06-05 04:58:00,64.1,62.9,29.92,NNE,18,0.0,3.0,96,0.00,,,0.12,VWS V14.01,2013-06-05 09:58:00,
2013-06-05 05:03:00,64.1,62.9,29.92,NNE,18,1.0,2.0,96,0.00,,,0.12,VWS V14.01,2013-06-05 10:03:00,
2013-06-05 05:08:00,64.1,62.9,29.91,NNE,16,4.0,5.0,96,0.00,,,0.12,VWS V14.01,2013-06-05 10:08:00,
2013-06-05 05:13:00,64.0,62.8,29.91,North,354,1.0,4.0,96,0.00,,,0.12,VWS V14.01,2013-06-05 10:13:00,
2013-06-05 05:18:00,63.9,62.7,29.91,North,10,4.0,6.0,96,0.00,,,0.12,VWS V14.01,2013-06-05 10:18:00,
2013-06-05 05:23:00,63.9,62.7,29.91,NNE,20,4.0,4.0,96,0.00,,,0.12,VWS V14.01,2013-06-05 10:23:00,
2013-06-05 05:28:00,63.8,62.6,29.91,NE,53,5.0,6.0,96,0.00,,,0.12,VWS V14.01,2013-06-05 10:28:00,
2013-06-05 05:33:00,63.8,62.6,29.91,NNE,24,3.0,4.0,96,0.00,,,0.12,VWS V14.01,2013-06-05 10:33:00,
2013-06-05 05:38:00,63.6,62.4,29.90,North,4,4.0,10.0,96,0.00,,,0.12,VWS V14.01,2013-06-05 10:38:00,
2013-06-05 05:43:00,63.6,62.4,29.90,North,4,6.0,6.0,96,0.00,,,0.12,VWS V14.01,2013-06-05 10:43:00,
2013-06-05 05:48:00,63.5,62.3,29.90,NNE,21,6.0,8.0,96,0.00,,,0.12,VWS V14.01,2013-06-05 10:48:00,
2013-06-05 05:53:00,63.4,62.2,29.90,North,354,4.0,6.0,96,0.00,,,0.12,VWS V14.01,2013-06-05 10:53:00,
2013-06-05 05:58:00,63.4,62.2,29.90,North,4,6.0,6.0,96,0.00,,,0.12,VWS V14.01,2013-06-05 10:58:00,
2013-06-05 06:03:00,63.2,62.0,29.90,NE,43,3.0,4.0,96,0.00,,,0.12,VWS V14.01,2013-06-05 11:03:00,
2013-06-05 06:08:00,63.0,61.8,29.90,North,359,1.0,4.0,96,0.00,,,0.12,VWS V14.01,2013-06-05 11:08:00,
2013-06-05 06:13:00,62.9,61.5,29.91,North,354,3.0,5.0,95,0.00,,,0.12,VWS V14.01,2013-06-05 11:13:00,
2013-06-05 06:18:00,62.8,61.3,29.92,NNE,20,3.0,4.0,95,0.00,,,0.12,VWS V14.01,2013-06-05 11:18:00,
2013-06-05 06:23:00,62.7,61.2,29.92,North,8,3.0,5.0,95,0.00,,,0.12,VWS V14.01,2013-06-05 11:23:00,
2013-06-05 06:28:00,62.6,61.5,29.92,NNE,23,6.0,6.0,96,0.00,,,0.12,VWS V14.01,2013-06-05 11:28:00,
2013-06-05 06:33:00,62.5,61.3,29.92,North,354,4.0,5.0,96,0.00,,,0.12,VWS V14.01,2013-06-05 11:33:00,
2013-06-05 06:38:00,62.4,61.0,29.92,North,354,4.0,6.0,95,0.00,,,0.12,VWS V14.01,2013-06-05 11:38:00,
2013-06-05 06:43:00,62.3,60.8,29.92,North,10,4.0,5.0,95,0.00,,,0.12,VWS V14.01,2013-06-05 11:43:00,
2013-06-05 06:48:00,62.3,61.2,29.93,NNE,32,5.0,9.0,96,0.00,,,0.12,VWS V14.01,2013-06-05 11:48:00,
2013-06-05 06:53:00,62.3,61.2,29.93,North,4,3.0,7.0,96,0.00,,,0.12,VWS V14.01,2013-06-05 11:53:00,
2013-06-05 06:58:00,62.3,61.2,29.93,NE,36,6.0,6.0,96,0.00,,,0.12,VWS V14.01,2013-06-05 11:58:00,
2013-06-05 07:03:00,62.3,61.2,29.94,North,4,2.0,5.0,96,0.00,,,0.12,VWS V14.01,2013-06-05 12:03:00,
2013-06-05 07:08:00,62.2,60.8,29.94,North,4,6.0,7.0,95,0.00,,,0.12,VWS V14.01,2013-06-05 12:08:00,
2013-06-05 07:13:00,62.2,60.8,29.93,NNE,19,3.0,5.0,95,0.00,,,0.13,VWS V14.01,2013-06-05 12:13:00,
2013-06-05 07:18:00,62.1,60.7,29.94,North,8,2.0,7.0,95,0.00,,,0.13,VWS V14.01,2013-06-05 12:18:00,
2013-06-05 07:23:00,62.1,60.7,29.93,NNW,337,3.0,6.0,95,0.00,,,0.14,VWS V14.01,2013-06-05 12:23:00,
2013-06-05 07:28:00,62.0,60.6,29.93,North,354,8.0,8.0,95,0.00,,,0.14,VWS V14.01,2013-06-05 12:28:00,
2013-06-05 07:33:00,61.7,60.3,29.93,NW,308,3.0,11.0,95,0.00,,,0.14,VWS V14.01,2013-06-05 12:33:00,
2013-06-05 07:38:00,61.5,60.1,29.93,NW,325,4.0,7.0,95,0.00,,,0.14,VWS V14.01,2013-06-05 12:38:00,
2013-06-05 07:43:00,61.3,59.9,29.93,NNE,16,7.0,9.0,95,0.00,,,0.14,VWS V14.01,2013-06-05 12:43:00,
2013-06-05 07:48:00,61.1,59.7,29.92,NNW,342,5.0,14.0,95,0.00,,,0.15,VWS V14.01,2013-06-05 12:48:00,
2013-06-05 07:53:00,61.0,59.6,29.92,NNE,14,4.0,9.0,95,0.00,,,0.15,VWS V14.01,2013-06-05 12:53:00,
2013-06-05 07:58:00,60.9,59.5,29.92,North,4,7.0,10.0,95,0.00,,,0.15,VWS V14.01,2013-06-05 12:58:00,
2013-06-05 08:03:00,60.8,59.4,29.93,NW,326,3.0,3.0,95,0.00,,,0.15,VWS V14.01,2013-06-05 13:03:00,
2013-06-05 08:08:00,60.7,59.3,29.94,NNE,23,0.0,4.0,95,0.00,,,0.15,VWS V14.01,2013-06-05 13:08:00,
2013-06-05 08:13:00,60.3,58.6,29.94,NNW,335,2.0,3.0,94,0.00,,OVC250,0.16,VWS V14.01,2013-06-05 13:13:00,
2013-06-05 08:18:00,60.1,58.4,29.95,North,349,1.0,3.0,94,0.00,,OVC250,0.16,VWS V14.01,2013-06-05 13:18:00,
2013-06-05 08:23:00,59.7,58.0,29.95,WNW,295,2.0,4.0,94,0.00,,OVC250,0.16,VWS V14.01,2013-06-05 13:23:00,
2013-06-05 08:28:00,59.5,57.8,29.95,NNW,345,1.0,4.0,94,0.00,,OVC250,0.16,VWS V14.01,2013-06-05 13:28:00,
2013-06-05 08:33:00,59.2,57.5,29.95,North,11,1.0,6.0,94,0.00,,OVC250,0.17,VWS V14.01,2013-06-05 13:33:00,
2013-06-05 08:39:00,58.9,57.2,29.94,NNE,14,9.0,10.0,94,0.00,,OVC250,0.18,VWS V14.01,2013-06-05 13:39:00,
2013-06-05 08:44:00,58.6,56.9,29.94,North,349,8.0,12.0,94,0.00,,OVC200,0.19,VWS V14.01,2013-06-05 13:44:00,
2013-06-05 08:49:00,58.5,56.5,29.93,NNE,12,9.0,13.0,93,0.00,,OVC200,0.19,VWS V14.01,2013-06-05 13:49:00,
2013-06-05 08:54:00,58.3,56.3,29.93,NNE,17,9.0,14.0,93,0.00,,OVC200,0.20,VWS V14.01,2013-06-05 13:54:00,
2013-06-05 08:59:00,58.1,55.8,29.93,NNE,14,7.0,16.0,92,0.00,,OVC200,0.21,VWS V14.01,2013-06-05 13:59:00,
2013-06-05 09:04:00,57.9,55.6,29.94,NNE,31,8.0,14.0,92,0.00,,OVC200,0.22,VWS V14.01,2013-06-05 14:04:00,
2013-06-05 09:09:00,57.8,55.5,29.94,North,359,6.0,8.0,92,0.00,,OVC200,0.22,VWS V14.01,2013-06-05 14:09:00,
2013-06-05 09:14:00,57.7,55.1,29.95,NNE,15,11.0,15.0,91,0.00,,OVC200,0.22,VWS V14.01,2013-06-05 14:14:00,
2013-06-05 09:19:00,57.7,55.1,29.95,NNE,14,7.0,9.0,91,0.00,,OVC200,0.22,VWS V14.01,2013-06-05 14:19:00,
2013-06-05 09:24:00,57.8,55.2,29.96,NNE,23,4.0,5.0,91,0.00,,OVC200,0.22,VWS V14.01,2013-06-05 14:24:00,
2013-06-05 09:29:00,57.9,55.3,29.96,NNE,20,5.0,6.0,91,0.00,,OVC200,0.23,VWS V14.01,2013-06-05 14:29:00,
2013-06-05 09:34:00,58.0,55.4,29.97,NNE,16,3.0,7.0,91,0.00,,OVC200,0.23,VWS V14.01,2013-06-05 14:34:00,
2013-06-05 09:39:00,58.1,54.9,29.97,NNE,14,6.0,7.0,89,0.00,,OVC200,0.23,VWS V14.01,2013-06-05 14:39:00,
2013-06-05 09:44:00,58.2,54.7,29.97,NNE,26,4.0,9.0,88,0.00,,OVC200,0.23,VWS V14.01,2013-06-05 14:44:00,
2013-06-05 09:49:00,58.3,54.8,29.97,NW,318,2.0,8.0,88,0.00,,OVC200,0.23,VWS V14.01,2013-06-05 14:49:00,
2013-06-05 09:54:00,58.4,54.5,29.97,NNE,27,6.0,9.0,87,0.00,,OVC250,0.23,VWS V14.01,2013-06-05 14:54:00,
2013-06-05 09:59:00,58.7,54.8,29.97,North,11,4.0,7.0,87,0.00,,OVC250,0.23,VWS V14.01,2013-06-05 14:59:00,
2013-06-05 10:04:00,58.8,54.6,29.97,NNE,33,5.0,10.0,86,0.00,,OVC250,0.23,VWS V14.01,2013-06-05 15:04:00,
2013-06-05 10:09:00,58.9,54.1,29.97,North,4,8.0,12.0,84,0.00,,OVC250,0.23,VWS V14.01,2013-06-05 15:09:00,
2013-06-05 10:14:00,59.1,54.3,29.97,North,10,5.0,8.0,84,0.00,,OVC250,0.23,VWS V14.01,2013-06-05 15:14:00,
2013-06-05 10:19:00,59.3,54.5,29.97,North,354,4.0,5.0,84,0.00,,OVC250,0.23,VWS V14.01,2013-06-05 15:19:00,
2013-06-05 10:24:00,59.5,53.7,29.97,NNE,12,6.0,10.0,81,0.00,,OVC250,0.23,VWS V14.01,2013-06-05 15:24:00,
2013-06-05 10:29:00,59.6,53.8,29.97,NNE,14,6.0,7.0,81,0.00,,OVC250,0.23,VWS V14.01,2013-06-05 15:29:00,
2013-06-05 10:34:00,59.6,53.4,29.97,NNE,28,4.0,8.0,80,0.00,,OVC250,0.23,VWS V14.01,2013-06-05 15:34:00,
2013-06-05 10:39:00,59.8,53.6,29.96,NNE,16,4.0,7.0,80,0.00,,OVC250,0.23,VWS V14.01,2013-06-05 15:39:00,
2013-06-05 10:44:00,59.9,53.4,29.96,NNE,13,7.0,7.0,79,0.00,,OVC250,0.23,VWS V14.01,2013-06-05 15:44:00,
2013-06-05 10:49:00,60.1,53.6,29.96,NNE,14,10.0,15.0,79,0.00,,OVC250,0.23,VWS V14.01,2013-06-05 15:49:00,
2013-06-05 10:54:00,60.2,53.7,29.96,NNE,27,2.0,8.0,79,0.00,,OVC250,0.23,VWS V14.01,2013-06-05 15:54:00,
2013-06-05 10:59:00,60.5,54.3,29.97,North,354,4.0,8.0,80,0.00,,OVC250,0.23,VWS V14.01,2013-06-05 15:59:00,
2013-06-05 11:04:00,60.7,54.5,29.97,NNE,30,4.0,4.0,80,0.00,,OVC250,0.23,VWS V14.01,2013-06-05 16:04:00,
2013-06-05 11:09:00,60.9,54.0,29.97,NW,321,2.0,7.0,78,0.00,,OVC250,0.23,VWS V14.01,2013-06-05 16:09:00,
2013-06-05 11:14:00,61.0,53.8,29.97,North,350,4.0,8.0,77,0.00,,OVC250,0.23,VWS V14.01,2013-06-05 16:14:00,
2013-06-05 11:19:00,61.3,53.7,29.97,NNE,23,5.0,8.0,76,0.00,,OVC250,0.23,VWS V14.01,2013-06-05 16:19:00,
2013-06-05 11:24:00,61.9,53.9,29.97,North,8,9.0,9.0,75,0.00,,OVC250,0.23,VWS V14.01,2013-06-05 16:24:00,
2013-06-05 11:29:00,62.5,54.1,29.97,NNW,338,4.0,11.0,74,0.00,,OVC250,0.23,VWS V14.01,2013-06-05 16:29:00,
2013-06-05 11:34:00,63.1,54.7,29.97,North,359,7.0,8.0,74,0.00,,OVC250,0.23,VWS V14.01,2013-06-05 16:34:00,
2013-06-05 11:40:00,63.1,53.9,29.97,NE,36,10.0,11.0,72,0.00,,OVC250,0.23,VWS V14.01,2013-06-05 16:40:00,
2013-06-05 11:44:00,63.0,53.8,29.97,North,354,6.0,12.0,72,0.00,,BKN250,0.23,VWS V14.01,2013-06-05 16:44:00,
2013-06-05 11:49:00,63.4,55.0,29.97,NNE,24,6.0,7.0,74,0.00,,BKN250,0.23,VWS V14.01,2013-06-05 16:49:00,
2013-06-05 11:55:00,63.7,53.7,29.98,NNE,22,9.0,10.0,70,0.00,,BKN250,0.23,VWS V14.01,2013-06-05 16:55:00,
2013-06-05 12:00:00,63.8,54.2,29.98,NNE,25,8.0,8.0,71,0.00,,BKN250,0.23,VWS V14.01,2013-06-05 17:00:00,
2013-06-05 12:04:00,64.2,55.4,29.98,North,8,8.0,9.0,73,0.00,,BKN250,0.23,VWS V14.01,2013-06-05 17:04:00,
2013-06-05 12:10:00,64.4,54.0,29.97,NE,48,6.0,9.0,69,0.00,,BKN250,0.23,VWS V14.01,2013-06-05 17:10:00,
2013-06-05 12:15:00,64.4,54.0,29.98,North,359,8.0,11.0,69,0.00,,BKN250,0.23,VWS V14.01,2013-06-05 17:15:00,
2013-06-05 12:20:00,64.7,53.9,29.98,North,8,7.0,12.0,68,0.00,,BKN250,0.23,VWS V14.01,2013-06-05 17:20:00,
2013-06-05 12:25:00,64.6,54.2,29.98,NNE,24,4.0,6.0,69,0.00,,BKN250,0.23,VWS V14.01,2013-06-05 17:25:00,
2013-06-05 12:30:00,64.4,53.2,29.98,NNE,33,4.0,9.0,67,0.00,,BKN250,0.23,VWS V14.01,2013-06-05 17:30:00,
2013-06-05 12:35:00,64.1,53.7,29.98,NNW,341,6.0,10.0,69,0.00,,BKN250,0.23,VWS V14.01,2013-06-05 17:35:00,
2013-06-05 12:40:00,64.3,53.9,29.98,NNE,19,4.0,12.0,69,0.00,,BKN250,0.23,VWS V14.01,2013-06-05 17:40:00,
2013-06-05 12:45:00,64.4,54.4,29.98,North,10,6.0,7.0,70,0.00,,BKN250,0.23,VWS V14.01,2013-06-05 17:45:00,
2013-06-05 12:50:00,64.6,54.6,29.98,NNE,23,5.0,5.0,70,0.00,,BKN250,0.23,VWS V14.01,2013-06-05 17:50:00,
2013-06-05 12:55:00,64.9,54.5,29.98,North,8,4.0,6.0,69,0.00,,BKN250,0.23,VWS V14.01,2013-06-05 17:55:00,
2013-06-05 13:00:00,65.0,54.2,29.98,NNE,12,7.0,7.0,68,0.00,,BKN250,0.23,VWS V14.01,2013-06-05 18:00:00,
2013-06-05 13:05:00,65.1,54.3,29.98,North,8,3.0,5.0,68,0.00,,BKN250,0.23,VWS V14.01,2013-06-05 18:05:00,
2013-06-05 13:10:00,64.9,53.7,29.98,NE,52,6.0,7.0,67,0.00,,BKN250,0.23,VWS V14.01,2013-06-05 18:10:00,
2013-06-05 13:15:00,64.8,53.6,29.97,NW,321,3.0,9.0,67,0.00,,BKN250,0.23,VWS V14.01,2013-06-05 18:15:00,
2013-06-05 13:20:00,65.1,54.7,29.97,NNW,347,1.0,4.0,69,0.00,,BKN250,0.23,VWS V14.01,2013-06-05 18:20:00,
2013-06-05 13:25:00,65.6,54.0,29.98,North,4,4.0,6.0,66,0.00,,BKN250,0.23,VWS V14.01,2013-06-05 18:25:00,
2013-06-05 13:30:00,65.8,53.7,29.97,NE,35,4.0,5.0,65,0.00,,BKN250,0.23,VWS V14.01,2013-06-05 18:30:00,
2013-06-05 13:35:00,65.9,53.4,29.97,NNE,14,4.0,9.0,64,0.00,,BKN250,0.23,VWS V14.01,2013-06-05 18:35:00,
2013-06-05 13:40:00,66.2,54.9,29.97,North,8,4.0,6.0,67,0.00,,BKN250,0.23,VWS V14.01,2013-06-05 18:40:00,
2013-06-05 13:45:00,66.8,55.1,29.96,NE,36,4.0,4.0,66,0.00,,BKN250,0.23,VWS V14.01,2013-06-05 18:45:00,
2013-06-05 13:50:00,66.7,52.8,29.96,North,4,5.0,9.0,61,0.00,,BKN250,0.23,VWS V14.01,2013-06-05 18:50:00,
2013-06-05 13:55:00,66.4,53.0,29.96,North,359,8.0,8.0,62,0.00,,BKN250,0.23,VWS V14.01,2013-06-05 18:55:00,
2013-06-05 14:00:00,66.3,53.3,29.96,NNE,23,3.0,6.0,63,0.00,,BKN250,0.23,VWS V14.01,2013-06-05 19:00:00,
2013-06-05 14:05:00,66.7,55.0,29.96,NNE,20,5.0,5.0,66,0.00,,BKN250,0.23,VWS V14.01,2013-06-05 19:05:00,
2013-06-05 14:10:00,67.0,54.4,29.96,NNE,25,6.0,7.0,64,0.00,,BKN250,0.23,VWS V14.01,2013-06-05 19:10:00,
2013-06-05 14:15:00,67.7,56.0,29.96,North,354,2.0,5.0,66,0.00,,BKN250,0.23,VWS V14.01,2013-06-05 19:15:00,
2013-06-05 14:21:00,68.1,54.6,29.95,North,354,6.0,6.0,62,0.00,,BKN250,0.23,VWS V14.01,2013-06-05 19:21:00,
2013-06-05 14:26:00,68.1,54.2,29.96,NNE,19,6.0,8.0,61,0.00,,BKN250,0.23,VWS V14.01,2013-06-05 19:26:00,
2013-06-05 14:31:00,67.8,53.9,29.95,NNE,26,4.0,7.0,61,0.00,,BKN250,0.23,VWS V14.01,2013-06-05 19:31:00,
2013-06-05 14:36:00,67.7,54.7,29.95,NNW,336,5.0,5.0,63,0.00,,BKN250,0.23,VWS V14.01,2013-06-05 19:36:00,
2013-06-05 14:41:00,67.9,54.0,29.95,North,4,5.0,8.0,61,0.00,,BKN250,0.23,VWS V14.01,2013-06-05 19:41:00,
2013-06-05 14:46:00,67.5,53.6,29.94,NNE,18,2.0,10.0,61,0.00,,BKN250,0.23,VWS V14.01,2013-06-05 19:46:00,
2013-06-05 14:51:00,67.8,54.8,29.94,NNE,16,4.0,4.0,63,0.00,,BKN250,0.23,VWS V14.01,2013-06-05 19:51:00,
2013-06-05 14:56:00,68.4,54.9,29.94,NNE,25,5.0,5.0,62,0.00,,BKN250,0.23,VWS V14.01,2013-06-05 19:56:00,
2013-06-05 15:02:00,68.6,55.1,29.94,North,8,3.0,4.0,62,0.00,,BKN250,0.23,VWS V14.01,2013-06-05 20:02:00,
2013-06-05 15:07:00,68.7,55.2,29.94,NE,38,5.0,5.0,62,0.00,,BKN250,0.23,VWS V14.01,2013-06-05 20:07:00,
2013-06-05 15:12:00,68.2,54.7,29.94,North,10,5.0,5.0,62,0.00,,BKN250,0.23,VWS V14.01,2013-06-05 20:12:00,
2013-06-05 15:17:00,68.2,55.1,29.94,NNW,348,6.0,6.0,63,0.00,,BKN250,0.23,VWS V14.01,2013-06-05 20:17:00,
2013-06-05 15:22:00,68.3,55.2,29.94,ENE,75,4.0,8.0,63,0.00,,BKN250,0.23,VWS V14.01,2013-06-05 20:22:00,
2013-06-05 15:27:00,68.3,55.2,29.94,NNE,15,2.0,3.0,63,0.00,,BKN250,0.23,VWS V14.01,2013-06-05 20:27:00,
2013-06-05 15:32:00,69.0,56.3,29.94,NNE,23,5.0,7.0,64,0.00,,BKN250,0.23,VWS V14.01,2013-06-05 20:32:00,
2013-06-05 15:37:00,69.2,55.6,29.93,North,4,2.0,6.0,62,0.00,,BKN250,0.23,VWS V14.01,2013-06-05 20:37:00,
2013-06-05 15:42:00,69.5,55.9,29.93,North,10,5.0,5.0,62,0.00,,BKN250,0.23,VWS V14.01,2013-06-05 20:42:00,
2013-06-05 15:47:00,69.7,56.6,29.93,NW,318,2.0,4.0,63,0.00,,BKN250,0.23,VWS V14.01,2013-06-05 20:47:00,
2013-06-05 15:52:00,69.8,56.7,29.93,NNE,14,3.0,4.0,63,0.00,,BKN250,0.23,VWS V14.01,2013-06-05 20:52:00,
2013-06-05 15:57:00,69.4,55.8,29.93,NNE,27,6.0,7.0,62,0.00,,BKN250,0.23,VWS V14.01,2013-06-05 20:57:00,
2013-06-05 16:02:00,68.8,56.1,29.93,NW,324,1.0,3.0,64,0.00,,BKN250,0.23,VWS V14.01,2013-06-05 21:02:00,
2013-06-05 16:07:00,68.8,56.1,29.93,NNE,23,4.0,6.0,64,0.00,,BKN250,0.23,VWS V14.01,2013-06-05 21:07:00,
2013-06-05 16:12:00,68.8,56.1,29.93,NE,36,2.0,4.0,64,0.00,,BKN250,0.23,VWS V14.01,2013-06-05 21:12:00,
2013-06-05 16:17:00,68.8,56.1,29.93,NW,324,3.0,4.0,64,0.00,,BKN250,0.23,VWS V14.01,2013-06-05 21:17:00,
2013-06-05 16:22:00,68.8,55.7,29.93,NNE,14,5.0,6.0,63,0.00,,BKN250,0.23,VWS V14.01,2013-06-05 21:22:00,
2013-06-05 16:27:00,68.7,54.7,29.93,NNW,338,2.0,5.0,61,0.00,,BKN250,0.23,VWS V14.01,2013-06-05 21:27:00,
2013-06-05 16:32:00,68.6,54.2,29.93,NNW,327,2.0,7.0,60,0.00,,BKN250,0.23,VWS V14.01,2013-06-05 21:32:00,
2013-06-05 16:37:00,69.2,53.8,29.92,North,354,4.0,8.0,58,0.00,,BKN250,0.23,VWS V14.01,2013-06-05 21:37:00,
2013-06-05 16:42:00,69.3,53.9,29.93,WNW,287,3.0,4.0,58,0.00,,BKN250,0.23,VWS V14.01,2013-06-05 21:42:00,
2013-06-05 16:47:00,69.0,53.6,29.93,NW,318,0.0,7.0,58,0.00,,BKN250,0.23,VWS V14.01,2013-06-05 21:47:00,
2013-06-05 16:52:00,68.9,53.1,29.93,NE,41,2.0,5.0,57,0.00,,SCT250,0.23,VWS V14.01,2013-06-05 21:52:00,
2013-06-05 16:57:00,69.2,52.8,29.93,NNE,23,2.0,3.0,56,0.00,,SCT250,0.23,VWS V14.01,2013-06-05 21:57:00,
2013-06-05 17:02:00,69.4,53.0,29.93,North,349,0.0,5.0,56,0.00,,SCT250,0.23,VWS V14.01,2013-06-05 22:02:00,
2013-06-05 17:07:00,69.5,53.6,29.92,NNE,12,5.0,5.0,57,0.00,,SCT250,0.23,VWS V14.01,2013-06-05 22:07:00,
2013-06-05 17:12:00,69.6,53.2,29.92,NNE,31,0.0,4.0,56,0.00,,SCT250,0.23,VWS V14.01,2013-06-05 22:12:00,
2013-06-05 17:17:00,69.6,53.7,29.92,North,4,2.0,5.0,57,0.00,,SCT250,0.23,VWS V14.01,2013-06-05 22:17:00,
2013-06-05 17:22:00,69.4,53.0,29.92,North,4,4.0,4.0,56,0.00,,SCT250,0.23,VWS V14.01,2013-06-05 22:22:00,
2013-06-05 17:27:00,69.3,54.8,29.92,NNE,14,3.0,5.0,60,0.00,,SCT250,0.23,VWS V14.01,2013-06-05 22:27:00,
2013-06-05 17:32:00,68.9,53.1,29.92,NNE,16,4.0,6.0,57,0.00,,SCT250,0.23,VWS V14.01,2013-06-05 22:32:00,
2013-06-05 17:37:00,68.7,53.8,29.92,NNE,16,3.0,4.0,59,0.00,,SCT250,0.23,VWS V14.01,2013-06-05 22:37:00,
2013-06-05 17:43:00,68.7,53.8,29.92,WNW,297,0.0,0.0,59,0.00,,SCT250,0.23,VWS V14.01,2013-06-05 22:43:00,
2013-06-05 17:48:00,68.9,54.0,29.92,NNE,31,3.0,4.0,59,0.00,,SCT250,0.23,VWS V14.01,2013-06-05 22:48:00,
2013-06-05 17:53:00,68.8,53.9,29.92,NNE,21,4.0,4.0,59,0.00,,SCT250,0.23,VWS V14.01,2013-06-05 22:53:00,
2013-06-05 17:58:00,68.7,53.3,29.92,North,11,2.0,5.0,58,0.00,,SCT250,0.23,VWS V14.01,2013-06-05 22:58:00,
2013-06-05 18:03:00,68.7,54.3,29.92,NNE,12,2.0,5.0,60,0.00,,SCT250,0.23,VWS V14.01,2013-06-05 23:03:00,
2013-06-05 18:08:00,68.7,53.8,29.91,North,8,4.0,6.0,59,0.00,,SCT250,0.23,VWS V14.01,2013-06-05 23:08:00,
2013-06-05 18:13:00,68.7,54.3,29.91,North,4,6.0,6.0,60,0.00,,SCT250,0.23,VWS V14.01,2013-06-05 23:13:00,
2013-06-05 18:18:00,68.7,54.7,29.91,NW,319,0.0,0.0,61,0.00,,SCT250,0.23,VWS V14.01,2013-06-05 23:18:00,
2013-06-05 18:23:00,68.9,54.0,29.91,North,10,2.0,3.0,59,0.00,,SCT250,0.23,VWS V14.01,2013-06-05 23:23:00,
2013-06-05 18:28:00,68.8,53.9,29.91,North,354,1.0,4.0,59,0.00,,SCT250,0.23,VWS V14.01,2013-06-05 23:28:00,
2013-06-05 18:33:00,68.8,54.4,29.91,North,10,4.0,5.0,60,0.00,,SCT250,0.23,VWS V14.01,2013-06-05 23:33:00,
2013-06-05 18:38:00,68.8,54.4,29.90,North,4,1.0,2.0,60,0.00,,SCT250,0.23,VWS V14.01,2013-06-05 23:38:00,
2013-06-05 18:43:00,68.8,54.8,29.90,North,4,0.0,1.0,61,0.00,,SCT110,0.23,VWS V14.01,2013-06-05 23:43:00,
2013-06-05 18:48:00,68.9,54.0,29.90,North,4,0.0,1.0,59,0.00,,SCT110,0.23,VWS V14.01,2013-06-05 23:48:00,
2013-06-05 18:53:00,68.9,55.4,29.90,NNE,16,0.0,0.0,62,0.00,,SCT110,0.23,VWS V14.01,2013-06-05 23:53:00,
2013-06-05 18:58:00,68.7,54.3,29.90,NNE,16,1.0,1.0,60,0.00,,SCT110,0.23,VWS V14.01,2013-06-05 23:58:00,
2013-06-05 19:03:00,68.6,54.2,29.90,NNE,16,1.0,1.0,60,0.00,,SCT110,0.23,VWS V14.01,2013-06-06 00:03:00,
2013-06-05 19:08:00,68.5,54.1,29.90,NNE,16,0.0,1.0,60,0.00,,SCT110,0.23,VWS V14.01,2013-06-06 00:08:00,
2013-06-05 19:13:00,68.6,53.7,29.90,NNE,16,2.0,4.0,59,0.00,,SCT110,0.23,VWS V14.01,2013-06-06 00:13:00,
2013-06-05 19:19:00,68.5,54.1,29.90,NNE,15,0.0,1.0,60,0.00,,SCT110,0.23,VWS V14.01,2013-06-06 00:19:00,
2013-06-05 19:24:00,68.4,53.5,29.90,NNE,15,0.0,0.0,59,0.00,,SCT110,0.23,VWS V14.01,2013-06-06 00:24:00,
2013-06-05 19:29:00,68.4,54.0,29.90,NNE,15,0.0,0.0,60,0.00,,SCT110,0.23,VWS V14.01,2013-06-06 00:29:00,
2013-06-05 19:34:00,68.4,53.5,29.91,NNE,15,1.0,1.0,59,0.00,,SCT110,0.23,VWS V14.01,2013-06-06 00:34:00,
2013-06-05 19:39:00,68.5,53.6,29.91,NNE,15,0.0,0.0,59,0.00,,SCT110,0.23,VWS V14.01,2013-06-06 00:39:00,
2013-06-05 19:44:00,68.5,54.5,29.91,SW,236,2.0,3.0,61,0.00,,SCT120,0.23,VWS V14.01,2013-06-06 00:44:00,
2013-06-05 19:49:00,68.3,54.8,29.91,SW,236,0.0,0.0,62,0.00,,SCT120,0.23,VWS V14.01,2013-06-06 00:49:00,
2013-06-05 19:54:00,68.3,55.2,29.91,SW,236,0.0,0.0,63,0.00,,SCT120,0.23,VWS V14.01,2013-06-06 00:54:00,
2013-06-05 19:59:00,68.2,55.6,29.91,SW,236,0.0,0.0,64,0.00,,SCT120,0.23,VWS V14.01,2013-06-06 00:59:00,
2013-06-05 20:04:00,68.1,55.9,29.91,SW,236,0.0,0.0,65,0.00,,SCT120,0.23,VWS V14.01,2013-06-06 01:04:00,
2013-06-05 20:09:00,67.7,55.1,29.92,SW,236,0.0,0.0,64,0.00,,SCT120,0.23,VWS V14.01,2013-06-06 01:09:00,
2013-06-05 20:14:00,67.5,55.3,29.92,SW,236,0.0,0.0,65,0.00,,SCT120,0.23,VWS V14.01,2013-06-06 01:14:00,
2013-06-05 20:19:00,67.1,56.2,29.91,SW,236,0.0,0.0,68,0.00,,SCT120,0.23,VWS V14.01,2013-06-06 01:19:00,
2013-06-05 20:24:00,66.8,55.9,29.91,SW,236,0.0,1.0,68,0.00,,SCT120,0.23,VWS V14.01,2013-06-06 01:24:00,
2013-06-05 20:29:00,66.5,56.0,29.91,SW,236,0.0,0.0,69,0.00,,SCT120,0.23,VWS V14.01,2013-06-06 01:29:00,
2013-06-05 20:34:00,66.2,55.7,29.92,SW,236,0.0,2.0,69,0.00,,SCT120,0.23,VWS V14.01,2013-06-06 01:34:00,
2013-06-05 20:39:00,66.1,54.0,29.92,NNW,347,2.0,4.0,65,0.00,,SCT120,0.23,VWS V14.01,2013-06-06 01:39:00,
2013-06-05 20:44:00,66.2,53.7,29.92,NW,326,0.0,1.0,64,0.00,,SCT120,0.23,VWS V14.01,2013-06-06 01:44:00,
2013-06-05 20:49:00,66.2,52.8,29.92,NNE,21,2.0,3.0,62,0.00,,SCT120,0.23,VWS V14.01,2013-06-06 01:49:00,
2013-06-05 20:54:00,66.1,52.7,29.92,NNW,328,1.0,4.0,62,0.00,,SCT130,0.23,VWS V14.01,2013-06-06 01:54:00,
2013-06-05 20:59:00,66.1,52.7,29.92,NNE,14,0.0,2.0,62,0.00,,SCT130,0.23,VWS V14.01,2013-06-06 01:59:00,
2013-06-05 21:04:00,66.0,52.6,29.92,NNE,18,3.0,4.0,62,0.00,,SCT130,0.23,VWS V14.01,2013-06-06 02:04:00,
2013-06-05 21:09:00,65.9,52.5,29.93,North,11,0.0,4.0,62,0.00,,SCT130,0.23,VWS V14.01,2013-06-06 02:09:00,
2013-06-05 21:14:00,65.7,52.8,29.93,North,11,0.0,2.0,63,0.00,,SCT130,0.23,VWS V14.01,2013-06-06 02:14:00,
2013-06-05 21:19:00,65.4,52.5,29.93,NNE,13,2.0,3.0,63,0.00,,SCT130,0.23,VWS V14.01,2013-06-06 02:19:00,
2013-06-05 21:24:00,65.1,53.1,29.93,NNE,13,0.0,1.0,65,0.00,,SCT130,0.23,VWS V14.01,2013-06-06 02:24:00,
2013-06-05 21:29:00,64.7,53.1,29.93,NNE,13,3.0,4.0,66,0.00,,SCT130,0.23,VWS V14.01,2013-06-06 02:29:00,
2013-06-05 21:34:00,64.3,53.1,29.93,NNE,13,3.0,3.0,67,0.00,,SCT130,0.23,VWS V14.01,2013-06-06 02:34:00,
2013-06-05 21:39:00,63.9,53.1,29.94,NNE,13,1.0,3.0,68,0.00,,SCT130,0.23,VWS V14.01,2013-06-06 02:39:00,
2013-06-05 21:44:00,63.6,52.5,29.94,NNE,14,1.0,3.0,67,0.00,,FEW130,0.23,VWS V14.01,2013-06-06 02:44:00,
2013-06-05 21:49:00,63.3,52.2,29.94,NNE,14,1.0,2.0,67,0.00,,FEW130,0.23,VWS V14.01,2013-06-06 02:49:00,
2013-06-05 21:54:00,63.2,52.1,29.95,NNE,13,0.0,2.0,67,0.00,,FEW130,0.23,VWS V14.01,2013-06-06 02:54:00,
2013-06-05 21:59:00,63.0,52.3,29.95,NNE,13,0.0,0.0,68,0.00,,FEW130,0.23,VWS V14.01,2013-06-06 02:59:00,
2013-06-05 22:05:00,62.8,52.1,29.95,NNE,13,0.0,1.0,68,0.00,,FEW130,0.23,VWS V14.01,2013-06-06 03:05:00,
2013-06-05 22:10:00,62.6,51.9,29.95,NNE,14,0.0,1.0,68,0.00,,FEW130,0.23,VWS V14.01,2013-06-06 03:10:00,
2013-06-05 22:15:00,62.5,51.8,29.95,NNE,13,0.0,1.0,68,0.00,,FEW130,0.23,VWS V14.01,2013-06-06 03:15:00,
2013-06-05 22:20:00,62.3,51.6,29.95,NNE,13,0.0,0.0,68,0.00,,FEW130,0.23,VWS V14.01,2013-06-06 03:20:00,
2013-06-05 22:25:00,62.1,51.4,29.95,NNE,13,0.0,0.0,68,0.00,,FEW130,0.23,VWS V14.01,2013-06-06 03:25:00,
2013-06-05 22:30:00,61.8,51.5,29.95,NNE,13,0.0,0.0,69,0.00,,FEW130,0.23,VWS V14.01,2013-06-06 03:30:00,
2013-06-05 22:35:00,61.5,51.2,29.95,NNE,13,0.0,0.0,69,0.00,,FEW130,0.23,VWS V14.01,2013-06-06 03:35:00,
2013-06-05 22:40:00,61.2,51.3,29.95,NNE,13,0.0,0.0,70,0.00,,FEW130,0.23,VWS V14.01,2013-06-06 03:40:00,
2013-06-05 22:45:00,61.0,50.8,29.95,NNE,14,0.0,0.0,69,0.00,,FEW130,0.23,VWS V14.01,2013-06-06 03:45:00,
2013-06-05 22:50:00,60.9,50.7,29.96,NNE,14,0.0,0.0,69,0.00,,FEW130,0.23,VWS V14.01,2013-06-06 03:50:00,
2013-06-05 22:55:00,60.8,51.0,29.96,NNE,13,0.0,0.0,70,0.00,,FEW130,0.23,VWS V14.01,2013-06-06 03:55:00,
2013-06-05 23:00:00,60.8,51.0,29.96,NNE,13,0.0,0.0,70,0.00,,FEW130,0.23,VWS V14.01,2013-06-06 04:00:00,
2013-06-05 23:01:00,60.7,50.9,29.96,NNE,13,0.0,0.0,70,0.00,,FEW130,0.23,VWS V14.01,2013-06-06 04:01:00,
2013-06-05 23:07:00,60.7,51.2,29.96,NNE,13,0.0,0.0,71,0.00,,FEW130,0.23,VWS V14.01,2013-06-06 04:07:00,
2013-06-05 23:12:00,60.7,51.2,29.96,NNE,13,0.0,0.0,71,0.00,,FEW130,0.23,VWS V14.01,2013-06-06 04:12:00,
2013-06-05 23:17:00,60.7,51.2,29.96,NNE,13,0.0,0.0,71,0.00,,FEW130,0.23,VWS V14.01,2013-06-06 04:17:00,
2013-06-05 23:22:00,60.7,51.2,29.96,NNE,13,1.0,2.0,71,0.00,,FEW130,0.23,VWS V14.01,2013-06-06 04:22:00,
2013-06-05 23:27:00,60.6,51.2,29.96,NNE,13,0.0,0.0,71,0.00,,FEW130,0.23,VWS V14.01,2013-06-06 04:27:00,
2013-06-05 23:32:00,60.4,51.0,29.96,NNE,13,0.0,0.0,71,0.00,,FEW130,0.23,VWS V14.01,2013-06-06 04:32:00,
2013-06-05 23:37:00,60.2,50.8,29.96,NNE,13,0.0,0.0,71,0.00,,FEW130,0.23,VWS V14.01,2013-06-06 04:37:00,
2013-06-05 23:42:00,59.9,51.2,29.95,NNE,13,0.0,0.0,73,0.00,,CLR,0.23,VWS V14.01,2013-06-06 04:42:00,
2013-06-05 23:47:00,59.5,51.2,29.95,NNE,13,0.0,0.0,74,0.00,,CLR,0.23,VWS V14.01,2013-06-06 04:47:00,
2013-06-05 23:52:00,59.2,50.9,29.95,NNE,13,0.0,0.0,74,0.00,,CLR,0.23,VWS V14.01,2013-06-06 04:52:00,
2013-06-05 23:57:00,59.0,50.7,29.95,NNE,13,0.0,0.0,74,0.00,,CLR,0.23,VWS V14.01,2013-06-06 04:57:00,